• In Czech Republic
  • List of Countries
  • For 7 days
  • Water Temperature
  • Satellite Maps
  • Weather Map
  • Weather Widgets
  • user-avatar
    Login

    Hourly Weather Ostrow

    Today, 18 July, Wednesday

    Time Temperature Precipitation Wind Pressure Humidity
    00:00 +18°C° 0.1 mm 4 mps 736 mmHg 96%
    01:00 +18°C° 0 mm 3 mps 735 mmHg 97%
    02:00 +18°C° 0.3 mm 3 mps 735 mmHg 97%
    03:00 +19°C° 0.3 mm 3 mps 735 mmHg 97%
    04:00 +19°C° 0.3 mm 4 mps 735 mmHg 97%
    05:00 +19°C° 0.9 mm 3 mps 735 mmHg 97%
    06:00 +19°C° 0.9 mm 3 mps 735 mmHg 96%
    07:00 +19°C° 0 mm 4 mps 735 mmHg 95%
    08:00 +20°C° 1 mm 3 mps 735 mmHg 94%
    09:00 +20°C° 1 mm 3 mps 736 mmHg 92%
    10:00 +21°C° 1 mm 3 mps 736 mmHg 91%
    11:00 +22°C° 0.7 mm 3 mps 736 mmHg 88%
    12:00 +22°C° 0.7 mm 3 mps 736 mmHg 86%
    13:00 +24°C° 0.7 mm 3 mps 736 mmHg 84%
    14:00 +24°C° 1 mm 3 mps 736 mmHg 85%
    15:00 +25°C° 1 mm 4 mps 736 mmHg 85%
    16:00 +25°C° 1 mm 4 mps 736 mmHg 86%
    17:00 +23°C° 1.5 mm 4 mps 736 mmHg 87%
    18:00 +23°C° 1.5 mm 4 mps 736 mmHg 89%
    19:00 +22°C° 1.5 mm 4 mps 736 mmHg 91%
    20:00 +22°C° 1.2 mm 3 mps 737 mmHg 93%
    21:00 +21°C° 1.2 mm 3 mps 737 mmHg 94%
    22:00 +20°C° 1.2 mm 3 mps 737 mmHg 96%
    23:00 +20°C° 1.2 mm 3 mps 737 mmHg 96%

    Tomorrow, 19 July, Thursday

    Time Temperature Precipitation Wind Pressure Humidity
    00:00 +20°C° 1.2 mm 4 mps 738 mmHg 97%
    01:00 +20°C° 1.2 mm 4 mps 738 mmHg 97%
    02:00 +20°C° 0.9 mm 4 mps 738 mmHg 97%
    03:00 +20°C° 0.9 mm 4 mps 738 mmHg 97%
    04:00 +20°C° 0.9 mm 5 mps 738 mmHg 97%
    05:00 +20°C° 0.4 mm 5 mps 738 mmHg 96%
    06:00 +20°C° 0.4 mm 5 mps 739 mmHg 96%
    07:00 +20°C° 0.4 mm 5 mps 739 mmHg 95%
    08:00 +21°C° 0.3 mm 5 mps 739 mmHg 94%
    09:00 +21°C° 0.3 mm 5 mps 740 mmHg 92%
    10:00 +21°C° 0.3 mm 5 mps 740 mmHg 91%
    11:00 +22°C° 0.4 mm 5 mps 740 mmHg 89%
    12:00 +22°C° 0.4 mm 5 mps 740 mmHg 88%
    13:00 +23°C° 0.4 mm 6 mps 740 mmHg 86%
    14:00 +23°C° 0.4 mm 6 mps 740 mmHg 85%
    15:00 +23°C° 0.4 mm 6 mps 740 mmHg 85%
    16:00 +23°C° 0.4 mm 6 mps 740 mmHg 84%
    17:00 +22°C° 0.3 mm 5 mps 740 mmHg 86%
    18:00 +22°C° 0.3 mm 5 mps 740 mmHg 88%
    19:00 +21°C° 0.3 mm 5 mps 740 mmHg 90%
    20:00 +20°C° 0.1 mm 5 mps 740 mmHg 91%
    21:00 +20°C° 0.1 mm 5 mps 741 mmHg 93%
    22:00 +19°C° 0.1 mm 4 mps 741 mmHg 94%
    23:00 +19°C° 0.1 mm 4 mps 741 mmHg 95%

    Day after tomorrow, 20 July, Friday

    Time Temperature Precipitation Wind Pressure Humidity
    00:00 +19°C° 0.1 mm 4 mps 741 mmHg 95%
    01:00 +19°C° 0.1 mm 4 mps 741 mmHg 96%
    02:00 +19°C° 0 mm 4 mps 741 mmHg 96%
    03:00 +18°C° 0 mm 4 mps 741 mmHg 96%
    04:00 +18°C° 0 mm 4 mps 741 mmHg 97%
    05:00 +19°C° 0 mm 4 mps 741 mmHg 95%
    06:00 +19°C° 0 mm 4 mps 741 mmHg 94%
    07:00 +20°C° 0 mm 4 mps 741 mmHg 93%
    08:00 +20°C° 0.1 mm 5 mps 741 mmHg 89%
    09:00 +21°C° 0.1 mm 5 mps 742 mmHg 86%
    10:00 +22°C° 0.1 mm 5 mps 742 mmHg 82%
    11:00 +23°C° 0.1 mm 5 mps 742 mmHg 76%
    12:00 +25°C° 0.1 mm 5 mps 741 mmHg 71%
    13:00 +26°C° 0.1 mm 5 mps 741 mmHg 65%
    14:00 +26°C° 0.1 mm 5 mps 741 mmHg 66%
    15:00 +26°C° 0.1 mm 5 mps 741 mmHg 66%
    16:00 +26°C° 0.1 mm 5 mps 741 mmHg 67%
    17:00 +25°C° 0.1 mm 4 mps 741 mmHg 72%
    18:00 +24°C° 0.1 mm 3 mps 741 mmHg 77%
    19:00 +22°C° 0.1 mm 3 mps 741 mmHg 82%
    20:00 +21°C° 0 mm 3 mps 741 mmHg 84%
    21:00 +20°C° 0 mm 2 mps 741 mmHg 87%
    22:00 +19°C° 0 mm 2 mps 742 mmHg 89%
    23:00 +18°C° 0 mm 2 mps 741 mmHg 90%

    21 July, Saturday

    Time Temperature Precipitation Wind Pressure Humidity
    00:00 +18°C° 0 mm 2 mps 741 mmHg 91%
    01:00 +17°C° 0 mm 2 mps 741 mmHg 93%
    02:00 +17°C° 0 mm 2 mps 741 mmHg 93%
    03:00 +17°C° 0 mm 2 mps 741 mmHg 94%
    04:00 +16°C° 0 mm 2 mps 741 mmHg 95%
    05:00 +18°C° 0 mm 2 mps 741 mmHg 91%
    06:00 +19°C° 0 mm 2 mps 742 mmHg 86%
    07:00 +21°C° 0 mm 2 mps 742 mmHg 82%
    08:00 +23°C° 0 mm 2 mps 742 mmHg 76%
    09:00 +24°C° 0 mm 2 mps 742 mmHg 70%
    10:00 +26°C° 0 mm 1 mps 742 mmHg 64%
    11:00 +26°C° 0 mm 2 mps 741 mmHg 61%
    12:00 +27°C° 0 mm 2 mps 741 mmHg 58%
    13:00 +28°C° 0 mm 2 mps 741 mmHg 55%
    14:00 +28°C° 0.1 mm 2 mps 741 mmHg 56%
    15:00 +28°C° 0.1 mm 1 mps 740 mmHg 57%
    16:00 +28°C° 0.1 mm 1 mps 740 mmHg 57%
    17:00 +26°C° 0.1 mm 1 mps 740 mmHg 62%
    18:00 +25°C° 0.1 mm 1 mps 740 mmHg 67%
    19:00 +23°C° 0.1 mm 1 mps 740 mmHg 72%
    20:00 +22°C° 0.1 mm 1 mps 740 mmHg 75%
    21:00 +21°C° 0.1 mm 1 mps 740 mmHg 78%
    22:00 +20°C° 0.1 mm 1 mps 740 mmHg 81%
    23:00 +20°C° 0.1 mm 1 mps 740 mmHg 82%

    22 July, Sunday

    Time Temperature Precipitation Wind Pressure Humidity
    00:00 +19°C° 0.1 mm 1 mps 740 mmHg 84%
    01:00 +19°C° 0.1 mm 1 mps 739 mmHg 86%
    02:00 +19°C° 0.2 mm 1 mps 739 mmHg 87%
    03:00 +18°C° 0.2 mm 1 mps 739 mmHg 88%
    04:00 +18°C° 0.2 mm 1 mps 739 mmHg 89%
    05:00 +20°C° 0 mm 1 mps 739 mmHg 86%
    06:00 +20°C° 0 mm 2 mps 739 mmHg 83%
    07:00 +21°C° 0 mm 2 mps 739 mmHg 80%
    08:00 +24°C° 0.7 mm 2 mps 738 mmHg 77%
    09:00 +25°C° 0.7 mm 3 mps 738 mmHg 74%
    10:00 +26°C° 0.7 mm 3 mps 738 mmHg 71%
    11:00 +26°C° 1.1 mm 3 mps 738 mmHg 70%
    12:00 +27°C° 1.1 mm 3 mps 738 mmHg 69%
    13:00 +27°C° 1.1 mm 3 mps 738 mmHg 68%
    14:00 +27°C° 0.8 mm 3 mps 738 mmHg 69%
    15:00 +27°C° 0.8 mm 3 mps 738 mmHg 71%
    16:00 +27°C° 0.8 mm 3 mps 737 mmHg 73%
    17:00 +25°C° 0.6 mm 3 mps 738 mmHg 75%
    18:00 +24°C° 0.6 mm 2 mps 738 mmHg 78%
    19:00 +23°C° 0.6 mm 2 mps 738 mmHg 81%
    20:00 +21°C° 0.4 mm 2 mps 738 mmHg 82%
    21:00 +21°C° 0.4 mm 2 mps 739 mmHg 83%
    22:00 +20°C° 0.4 mm 2 mps 739 mmHg 83%
    23:00 +20°C° 0.2 mm 2 mps 739 mmHg 84%

    23 July, Monday

    Time Temperature Precipitation Wind Pressure Humidity
    00:00 +19°C° 0.2 mm 2 mps 739 mmHg 85%
    01:00 +19°C° 0.2 mm 2 mps 739 mmHg 85%
    02:00 +18°C° 0 mm 2 mps 740 mmHg 86%
    03:00 +18°C° 0 mm 2 mps 740 mmHg 87%
    04:00 +17°C° 0 mm 2 mps 740 mmHg 88%
    05:00 +18°C° 0 mm 2 mps 741 mmHg 86%
    06:00 +19°C° 0 mm 2 mps 741 mmHg 84%
    07:00 +20°C° 0 mm 3 mps 741 mmHg 82%
    08:00 +22°C° 0.1 mm 3 mps 741 mmHg 77%
    09:00 +24°C° 0.1 mm 3 mps 741 mmHg 72%
    10:00 +26°C° 0.1 mm 4 mps 741 mmHg 67%
    11:00 +26°C° 0.1 mm 4 mps 741 mmHg 67%
    12:00 +26°C° 0.1 mm 4 mps 741 mmHg 66%
    13:00 +26°C° 0.1 mm 4 mps 741 mmHg 66%
    14:00 +26°C° 0.1 mm 4 mps 741 mmHg 66%
    15:00 +26°C° 0.1 mm 4 mps 741 mmHg 66%
    16:00 +26°C° 0.1 mm 5 mps 741 mmHg 66%
    17:00 +25°C° 0.2 mm 4 mps 742 mmHg 71%
    18:00 +24°C° 0.2 mm 3 mps 742 mmHg 76%
    19:00 +22°C° 0.2 mm 3 mps 742 mmHg 82%
    20:00 +21°C° 0.1 mm 3 mps 742 mmHg 84%
    21:00 +20°C° 0.1 mm 2 mps 742 mmHg 86%
    22:00 +19°C° 0.1 mm 2 mps 742 mmHg 88%
    23:00 +18°C° 0 mm 2 mps 742 mmHg 89%
    Show more